Location: Austin
(30.3000°N, 97.7500°W)
Time: 05:01:53
(UTC-06:00)

OAO 3 Copernicus - Pass Details

Date: 03 March 2026
Orbit: 689 x 698 km, 35.0° (Epoch: 5 March)

Event Time Altitude Azimuth Distance (km) Brightness Sun altitude
Rises 19:33:50 0° 289° (WNW) 3,047 9.1 -14.3°
Reaches altitude 10° 19:36:14 10° 290° (WNW) 2,130 8.0 -14.8°
Maximum altitude 19:41:14 80° 18° (NNE) 699 4.2 -15.9°
Enters shadow 19:43:51 28° 102° (ESE) 1,270 5.1 -16.4°
